time, Switch, Flow(0), Analog(2)
yyyy/mm/dd HH:MM:SS.fff, True=FILTERED|False=TOTAL, L/min, V
2023/06/25 11:00:03.353, True, 4.974, 0.127871
2023/06/25 11:00:03.857, True, 3.979, 0.126421
2023/06/25 11:00:04.361, True, 2.989, 0.126192
2023/06/25 11:00:04.857, True, 2.355, 0.128023
2023/06/25 11:00:05.361, True, 1.990, 0.127489
2023/06/25 11:00:05.865, True, 1.990, 0.126345
2023/06/25 11:00:06.360, True, 2.360, 0.125811
2023/06/25 11:00:06.865, True, 1.988, 0.128862
2023/06/25 11:00:07.368, True, 2.321, 0.128176
2023/06/25 11:00:07.865, True, 2.022, 0.127794
2023/06/25 11:00:08.369, True, 1.990, 0.127337
2023/06/25 11:00:08.872, True, 1.990, 0.128099
2023/06/25 11:00:09.368, True, 2.022, 0.127108
2023/06/25 11:00:09.873, True, 2.321, 0.128176
2023/06/25 11:00:10.376, True, 1.990, 0.125582
2023/06/25 11:00:10.872, True, 2.021, 0.129168
2023/06/25 11:00:11.377, True, 2.321, 0.127718
2023/06/25 11:00:11.881, True, 1.990, 0.128099
2023/06/25 11:00:12.377, True, 2.022, 0.128634
2023/06/25 11:00:12.881, True, 1.990, 0.126879
2023/06/25 11:00:13.385, True, 1.992, 0.126879
2023/06/25 11:00:13.880, True, 2.019, 0.126421
2023/06/25 11:00:14.384, True, 2.321, 0.126879
2023/06/25 11:00:14.889, True, 1.990, 0.127031
2023/06/25 11:00:15.384, True, 2.022, 0.127718
2023/06/25 11:00:15.888, True, 1.990, 0.127565
2023/06/25 11:00:16.393, True, 1.989, 0.127718
2023/06/25 11:00:16.889, True, 2.359, 0.126421
2023/06/25 11:00:17.393, True, 1.990, 0.126192
2023/06/25 11:00:17.896, True, 1.989, 0.127871
2023/06/25 11:00:18.392, True, 2.022, 0.126116
2023/06/25 11:00:18.897, True, 2.322, 0.128176
2023/06/25 11:00:19.401, True, 1.989, 0.127260
2023/06/25 11:00:19.897, True, 2.021, 0.127642
2023/06/25 11:00:20.401, True, 1.991, 0.127947
2023/06/25 11:00:20.905, True, 2.320, 0.127031
2023/06/25 11:00:21.401, True, 2.021, 0.126650
2023/06/25 11:00:21.905, True, 2.325, 0.127794
2023/06/25 11:00:22.409, True, 1.987, 0.130236
2023/06/25 11:00:22.905, True, 2.021, 0.125582
2023/06/25 11:00:23.409, True, 2.321, 0.127642
2023/06/25 11:00:23.912, True, 1.993, 0.128328
2023/06/25 11:00:24.409, True, 2.020, 0.128557
2023/06/25 11:00:24.913, True, 1.988, 0.128710
2023/06/25 11:00:25.408, True, 2.024, 0.128786
2023/06/25 11:00:25.913, True, 2.319, 0.125124
2023/06/25 11:00:26.417, True, 1.990, 0.127413
2023/06/25 11:00:26.913, True, 2.022, 0.127565
2023/06/25 11:00:27.417, True, 2.324, 0.127947
2023/06/25 11:00:27.921, True, 1.988, 0.127947
2023/06/25 11:00:28.425, True, 1.990, 0.127184
2023/06/25 11:00:28.921, True, 2.022, 0.127184
2023/06/25 11:00:29.425, True, 2.321, 0.127413
2023/06/25 11:00:29.928, True, 1.990, 0.127565
2023/06/25 11:00:30.424, True, 2.022, 0.127184
2023/06/25 11:00:30.929, True, 2.324, 0.126574
2023/06/25 11:00:31.433, True, 1.987, 0.127260
2023/06/25 11:00:31.929, True, 2.022, 0.127642
2023/06/25 11:00:32.432, True, 1.989, 0.129168
2023/06/25 11:00:32.937, True, 1.990, 0.129473
2023/06/25 11:00:33.433, True, 2.021, 0.130312
2023/06/25 11:00:33.936, True, 2.321, 0.128634
2023/06/25 11:00:34.440, True, 1.991, 0.127947
2023/06/25 11:00:34.937, True, 2.021, 0.129244
2023/06/25 11:00:35.440, True, 2.324, 0.128252
2023/06/25 11:00:35.945, True, 1.987, 0.129854
2023/06/25 11:00:36.441, True, 2.022, 0.131456
2023/06/25 11:00:36.945, True, 1.990, 0.131533
2023/06/25 11:00:37.449, True, 1.990, 0.129931
2023/06/25 11:00:37.945, True, 2.023, 0.132525
2023/06/25 11:00:38.449, True, 2.320, 0.131380
2023/06/25 11:00:38.944, True, 2.022, 0.131533
2023/06/25 11:00:39.449, True, 1.990, 0.131914
2023/06/25 11:00:39.953, True, 2.321, 0.130465
2023/06/25 11:00:40.449, True, 2.022, 0.132830
2023/06/25 11:00:40.953, True, 1.990, 0.134356
2023/06/25 11:00:41.457, True, 2.320, 0.135119
2023/06/25 11:00:41.953, True, 2.022, 0.132906
2023/06/25 11:00:42.457, True, 1.990, 0.133593
2023/06/25 11:00:42.960, True, 2.321, 0.131609
2023/06/25 11:00:43.456, True, 2.021, 0.135195
2023/06/25 11:00:43.961, True, 1.990, 0.135653
2023/06/25 11:00:44.457, True, 2.022, 0.136797
2023/06/25 11:00:44.961, True, 1.990, 0.137560
2023/06/25 11:00:45.465, True, 2.321, 0.137026
2023/06/25 11:00:45.961, True, 2.022, 0.137407
2023/06/25 11:00:46.465, True, 1.990, 0.137865
2023/06/25 11:00:46.968, True, 2.321, 0.135576
2023/06/25 11:00:47.465, True, 2.022, 0.137102
2023/06/25 11:00:47.968, True, 2.324, 0.137102
2023/06/25 11:00:48.473, True, 1.988, 0.135424
2023/06/25 11:00:48.969, True, 2.022, 0.135729
2023/06/25 11:00:49.473, True, 1.990, 0.137942
2023/06/25 11:00:49.977, True, 2.321, 0.137560
2023/06/25 11:00:50.473, True, 2.022, 0.137713
2023/06/25 11:00:50.976, True, 1.990, 0.137484
2023/06/25 11:00:51.481, True, 2.321, 0.139696
2023/06/25 11:00:51.976, True, 2.022, 0.137102
2023/06/25 11:00:52.481, True, 1.990, 0.135805
2023/06/25 11:00:52.985, True, 2.321, 0.138018
2023/06/25 11:00:53.481, True, 2.022, 0.137026
2023/06/25 11:00:53.985, True, 2.321, 0.139315
2023/06/25 11:00:54.489, True, 1.990, 0.137179
2023/06/25 11:00:54.984, True, 2.023, 0.139467
2023/06/25 11:00:55.489, True, 2.320, 0.136568
2023/06/25 11:00:55.993, True, 1.990, 0.136950
2023/06/25 11:00:56.489, True, 2.022, 0.137789
2023/06/25 11:00:56.992, True, 1.992, 0.137865
2023/06/25 11:00:57.497, True, 1.987, 0.137484
2023/06/25 11:00:57.993, True, 2.022, 0.137560
2023/06/25 11:00:58.497, True, 2.321, 0.138170
2023/06/25 11:00:59.000, True, 1.990, 0.138705
2023/06/25 11:00:59.497, True, 2.022, 0.140307
2023/06/25 11:01:00.000, True, 1.989, 0.139696
2023/06/25 11:01:00.505, True, 2.321, 0.139391
2023/06/25 11:01:01.001, True, 2.022, 0.140536
2023/06/25 11:01:01.504, True, 1.990, 0.139544
2023/06/25 11:01:02.009, True, 1.990, 0.138781
2023/06/25 11:01:02.505, True, 2.022, 0.138933
2023/06/25 11:01:03.009, True, 2.321, 0.139391
2023/06/25 11:01:03.513, True, 1.991, 0.136950
2023/06/25 11:01:04.009, True, 2.021, 0.142061
2023/06/25 11:01:04.513, True, 1.990, 0.137407
2023/06/25 11:01:05.017, True, 2.321, 0.138857
2023/06/25 11:01:05.513, True, 2.022, 0.138933
2023/06/25 11:01:06.017, True, 1.991, 0.139391
2023/06/25 11:01:06.521, True, 2.319, 0.138018
2023/06/25 11:01:07.017, True, 2.022, 0.139086
2023/06/25 11:01:07.521, True, 1.989, 0.138552
2023/06/25 11:01:08.024, True, 1.990, 0.141070
2023/06/25 11:01:08.520, True, 2.022, 0.138399
2023/06/25 11:01:09.025, True, 1.989, 0.137636
2023/06/25 11:01:09.529, True, 1.990, 0.137026
2023/06/25 11:01:10.025, True, 2.022, 0.138781
2023/06/25 11:01:10.529, True, 1.990, 0.140764
2023/06/25 11:01:11.033, True, 2.321, 0.138552
2023/06/25 11:01:11.529, True, 2.022, 0.139391
2023/06/25 11:01:12.032, True, 1.990, 0.138170
2023/06/25 11:01:12.537, True, 2.321, 0.138552
2023/06/25 11:01:13.033, True, 2.022, 0.139239
2023/06/25 11:01:13.537, True, 1.990, 0.139620
2023/06/25 11:01:14.040, True, 2.321, 0.138018
2023/06/25 11:01:14.537, True, 2.022, 0.139620
2023/06/25 11:01:15.041, True, 1.990, 0.138933
2023/06/25 11:01:15.545, True, 1.990, 0.136645
2023/06/25 11:01:16.041, True, 2.022, 0.139315
2023/06/25 11:01:16.545, True, 2.321, 0.139162
2023/06/25 11:01:17.048, True, 1.990, 0.138781
2023/06/25 11:01:17.553, True, 2.321, 0.138781
2023/06/25 11:01:18.049, True, 2.022, 0.138933
2023/06/25 11:01:18.553, True, 1.989, 0.139467
2023/06/25 11:01:19.057, True, 1.990, 0.140307
2023/06/25 11:01:19.552, True, 2.359, 0.138781
2023/06/25 11:01:20.056, True, 1.992, 0.138018
2023/06/25 11:01:20.560, True, 1.987, 0.137636
2023/06/25 11:01:21.057, True, 2.022, 0.139086
2023/06/25 11:01:21.560, True, 2.321, 0.134890
2023/06/25 11:01:22.064, True, 1.990, 0.137026
2023/06/25 11:01:22.560, True, 2.022, 0.140841
2023/06/25 11:01:23.064, True, 1.990, 0.139620
2023/06/25 11:01:23.568, True, 2.321, 0.139239
2023/06/25 11:01:24.064, True, 2.026, 0.138552
2023/06/25 11:01:24.568, True, 2.317, 0.138170
2023/06/25 11:01:25.072, True, 1.990, 0.137026
2023/06/25 11:01:25.569, True, 2.359, 0.137560
2023/06/25 11:01:26.072, True, 1.990, 0.137102
2023/06/25 11:01:26.576, True, 2.321, 0.138170
2023/06/25 11:01:27.072, True, 2.022, 0.138857
2023/06/25 11:01:27.576, True, 2.325, 0.136950
2023/06/25 11:01:28.081, True, 1.986, 0.138552
2023/06/25 11:01:28.576, True, 2.022, 0.136034
2023/06/25 11:01:29.080, True, 2.321, 0.137407
2023/06/25 11:01:29.584, True, 1.990, 0.139010
2023/06/25 11:01:30.080, True, 2.022, 0.138094
2023/06/25 11:01:30.584, True, 2.321, 0.136339
2023/06/25 11:01:31.080, True, 2.022, 0.141299
2023/06/25 11:01:31.584, True, 1.990, 0.137789
2023/06/25 11:01:32.088, True, 2.321, 0.139162
2023/06/25 11:01:32.584, True, 2.022, 0.138857
2023/06/25 11:01:33.088, True, 1.989, 0.138705
2023/06/25 11:01:33.592, True, 1.990, 0.138399
2023/06/25 11:01:34.088, True, 2.022, 0.136492
2023/06/25 11:01:34.592, True, 1.990, 0.137789
2023/06/25 11:01:35.096, True, 2.325, 0.138399
2023/06/25 11:01:35.592, True, 2.018, 0.138705
2023/06/25 11:01:36.096, True, 1.990, 0.137331
2023/06/25 11:01:36.592, True, 2.022, 0.139239
2023/06/25 11:01:37.097, True, 2.321, 0.136568
2023/06/25 11:01:37.600, True, 1.990, 0.137636
2023/06/25 11:01:38.096, True, 2.022, 0.137789
2023/06/25 11:01:38.600, True, 2.321, 0.136950
2023/06/25 11:01:39.104, True, 1.992, 0.135653
2023/06/25 11:01:39.608, True, 1.988, 0.139696
2023/06/25 11:01:40.105, True, 2.359, 0.139239
2023/06/25 11:01:40.608, True, 1.990, 0.136721
2023/06/25 11:01:41.112, True, 1.990, 0.136110
2023/06/25 11:01:41.608, True, 2.023, 0.137179
2023/06/25 11:01:42.112, True, 2.319, 0.137407
2023/06/25 11:01:42.608, True, 2.022, 0.136797
2023/06/25 11:01:43.113, True, 1.990, 0.137026
2023/06/25 11:01:43.616, True, 1.990, 0.138552
2023/06/25 11:01:44.112, True, 2.359, 0.136187
2023/06/25 11:01:44.616, True, 1.990, 0.138323
2023/06/25 11:01:45.119, True, 1.990, 0.136797
2023/06/25 11:01:45.616, True, 2.021, 0.135729
2023/06/25 11:01:46.120, True, 2.324, 0.137255
2023/06/25 11:01:46.624, True, 1.987, 0.137102
2023/06/25 11:01:47.128, True, 2.321, 0.135119
2023/06/25 11:01:47.624, True, 2.022, 0.137484
2023/06/25 11:01:48.128, True, 1.990, 0.135958
2023/06/25 11:01:48.623, True, 2.361, 0.136873
2023/06/25 11:01:49.128, True, 1.988, 0.136187
2023/06/25 11:01:49.632, True, 1.989, 0.135500
2023/06/25 11:01:50.128, True, 2.022, 0.137636
2023/06/25 11:01:50.632, True, 2.321, 0.137407
2023/06/25 11:01:51.136, True, 1.990, 0.135805
2023/06/25 11:01:51.632, True, 2.021, 0.136645
2023/06/25 11:01:52.136, True, 1.993, 0.135119
2023/06/25 11:01:52.640, True, 2.319, 0.138705
2023/06/25 11:01:53.136, True, 2.021, 0.136416
2023/06/25 11:01:53.640, True, 1.993, 0.138247
2023/06/25 11:01:54.144, True, 2.320, 0.136950
2023/06/25 11:01:54.648, True, 1.989, 0.134356
2023/06/25 11:01:55.144, True, 2.358, 0.136492
2023/06/25 11:01:55.648, True, 1.989, 0.136492
2023/06/25 11:01:56.152, True, 1.990, 0.138094
2023/06/25 11:01:56.647, True, 2.026, 0.137484
2023/06/25 11:01:57.152, True, 1.988, 0.136187
2023/06/25 11:01:57.648, True, 2.020, 0.138552
2023/06/25 11:01:58.152, True, 2.321, 0.134966
2023/06/25 11:01:58.656, True, 1.990, 0.137713
2023/06/25 11:01:59.160, True, 1.989, 0.134508
2023/06/25 11:01:59.656, True, 2.022, 0.136645
2023/06/25 11:02:00.160, True, 1.989, 0.135805
2023/06/25 11:02:00.656, True, 2.360, 0.134051
2023/06/25 11:02:01.160, True, 1.989, 0.136339
2023/06/25 11:02:01.664, True, 1.990, 0.136110
2023/06/25 11:02:02.159, True, 2.022, 0.134661
2023/06/25 11:02:02.664, True, 2.324, 0.136492
2023/06/25 11:02:03.168, True, 1.988, 0.135958
2023/06/25 11:02:03.664, True, 2.021, 0.135424
2023/06/25 11:02:04.168, True, 1.990, 0.135195
2023/06/25 11:02:04.672, True, 1.990, 0.133669
2023/06/25 11:02:05.168, True, 2.022, 0.136263
2023/06/25 11:02:05.672, True, 2.324, 0.137789
2023/06/25 11:02:06.176, True, 1.986, 0.135195
2023/06/25 11:02:06.672, True, 2.359, 0.138705
2023/06/25 11:02:07.176, True, 1.989, 0.134508
2023/06/25 11:02:07.680, True, 2.324, 0.137789
2023/06/25 11:02:08.176, True, 2.020, 0.135576
2023/06/25 11:02:08.680, True, 1.990, 0.136339
2023/06/25 11:02:09.184, True, 2.321, 0.136797
2023/06/25 11:02:09.680, True, 2.022, 0.135348
2023/06/25 11:02:10.184, True, 2.321, 0.135882
2023/06/25 11:02:10.688, True, 1.990, 0.135500
2023/06/25 11:02:11.184, True, 2.022, 0.135271
2023/06/25 11:02:11.688, True, 1.990, 0.136568
2023/06/25 11:02:12.193, True, 1.993, 0.135195
2023/06/25 11:02:12.688, True, 2.355, 0.137407
2023/06/25 11:02:13.192, True, 1.990, 0.135805
2023/06/25 11:02:13.696, True, 2.325, 0.138018
2023/06/25 11:02:14.192, True, 2.019, 0.135882
2023/06/25 11:02:14.696, True, 2.325, 0.135576
2023/06/25 11:02:15.200, True, 1.986, 0.135500
2023/06/25 11:02:15.696, True, 2.024, 0.135882
2023/06/25 11:02:16.200, True, 1.988, 0.136034
2023/06/25 11:02:16.704, True, 1.990, 0.136034
2023/06/25 11:02:17.200, True, 2.022, 0.134966
2023/06/25 11:02:17.704, True, 2.321, 0.133135
2023/06/25 11:02:18.208, True, 1.990, 0.135348
2023/06/25 11:02:18.704, True, 2.022, 0.134508
2023/06/25 11:02:19.208, True, 1.990, 0.133211
2023/06/25 11:02:19.704, True, 2.022, 0.133288
2023/06/25 11:02:20.208, True, 2.321, 0.134966
2023/06/25 11:02:20.712, True, 1.990, 0.133898
2023/06/25 11:02:21.216, True, 1.990, 0.133364
2023/06/25 11:02:21.712, True, 2.022, 0.135119
2023/06/25 11:02:22.216, True, 2.321, 0.135500
2023/06/25 11:02:22.720, True, 1.993, 0.134432
2023/06/25 11:02:23.216, True, 2.355, 0.133516
2023/06/25 11:02:23.720, True, 1.990, 0.132830
2023/06/25 11:02:24.224, True, 2.320, 0.132753
2023/06/25 11:02:24.720, True, 2.023, 0.133288
2023/06/25 11:02:25.224, True, 1.988, 0.134127
2023/06/25 11:02:25.728, True, 2.321, 0.137484
2023/06/25 11:02:26.224, True, 2.022, 0.135119
2023/06/25 11:02:26.728, True, 1.990, 0.134890
2023/06/25 11:02:27.232, True, 1.990, 0.133288
2023/06/25 11:02:27.728, True, 2.022, 0.134508
2023/06/25 11:02:28.233, True, 2.321, 0.133440
2023/06/25 11:02:28.736, True, 1.990, 0.134356
2023/06/25 11:02:29.232, True, 2.359, 0.135729
2023/06/25 11:02:29.736, True, 1.989, 0.131609
2023/06/25 11:02:30.232, True, 2.022, 0.134508
2023/06/25 11:02:30.736, True, 1.990, 0.135653
2023/06/25 11:02:31.240, True, 2.323, 0.132067
2023/06/25 11:02:31.736, True, 2.021, 0.131228
2023/06/25 11:02:32.240, True, 1.989, 0.136034
2023/06/25 11:02:32.744, True, 2.324, 0.133135
2023/06/25 11:02:33.240, True, 2.019, 0.133364
2023/06/25 11:02:33.744, True, 1.990, 0.133669
2023/06/25 11:02:34.248, True, 2.321, 0.132067
2023/06/25 11:02:34.744, True, 2.022, 0.134813
2023/06/25 11:02:35.248, True, 1.992, 0.132830
2023/06/25 11:02:35.752, True, 1.987, 0.135119
2023/06/25 11:02:36.248, True, 2.359, 0.132219
2023/06/25 11:02:36.752, True, 1.990, 0.135576
2023/06/25 11:02:37.256, True, 1.990, 0.134127
2023/06/25 11:02:37.752, True, 2.022, 0.134661
2023/06/25 11:02:38.256, True, 1.990, 0.135653
2023/06/25 11:02:38.760, True, 1.990, 0.134432
2023/06/25 11:02:39.256, True, 2.022, 0.133516
2023/06/25 11:02:39.760, True, 1.990, 0.131533
2023/06/25 11:02:40.264, True, 2.323, 0.133516
2023/06/25 11:02:40.760, True, 2.021, 0.132372
2023/06/25 11:02:41.264, True, 1.989, 0.133211
2023/06/25 11:02:41.768, True, 1.990, 0.131991
2023/06/25 11:02:42.264, True, 2.023, 0.134813
2023/06/25 11:02:42.768, True, 2.320, 0.135576
2023/06/25 11:02:43.272, True, 1.990, 0.134127
2023/06/25 11:02:43.768, True, 2.022, 0.133593
2023/06/25 11:02:44.272, True, 2.321, 0.132448
2023/06/25 11:02:44.776, True, 1.990, 0.133669
2023/06/25 11:02:45.272, True, 2.022, 0.132677
2023/06/25 11:02:45.776, True, 2.321, 0.135042
2023/06/25 11:02:46.280, True, 1.990, 0.135119
2023/06/25 11:02:46.776, True, 2.022, 0.133974
2023/06/25 11:02:47.280, True, 1.990, 0.133593
2023/06/25 11:02:47.784, True, 1.989, 0.134661
2023/06/25 11:02:48.288, True, 2.322, 0.131533
2023/06/25 11:02:48.784, True, 2.022, 0.131609
2023/06/25 11:02:49.288, True, 1.989, 0.134737
2023/06/25 11:02:49.792, True, 1.659, 0.130465
2023/06/25 11:02:50.288, True, 2.359, 0.132830
2023/06/25 11:02:50.792, True, 1.989, 0.132830
2023/06/25 11:02:51.288, True, 2.022, 0.131456
2023/06/25 11:02:51.792, True, 1.991, 0.132219
2023/06/25 11:02:52.296, True, 2.320, 0.134737
2023/06/25 11:02:52.792, True, 2.022, 0.132830
2023/06/25 11:02:53.296, True, 1.992, 0.132677
2023/06/25 11:02:53.800, True, 1.988, 0.130770
2023/06/25 11:02:54.296, True, 2.359, 0.131914
2023/06/25 11:02:54.800, True, 1.991, 0.134356
2023/06/25 11:02:55.296, True, 2.023, 0.134356
2023/06/25 11:02:55.800, True, 2.323, 0.131304
2023/06/25 11:02:56.304, True, 1.989, 0.133211
2023/06/25 11:02:56.800, True, 2.022, 0.131838
2023/06/25 11:02:57.304, True, 2.318, 0.133135
2023/06/25 11:02:57.808, True, 1.992, 0.132448
2023/06/25 11:02:58.304, True, 2.020, 0.131380
2023/06/25 11:02:58.808, True, 2.322, 0.132448
2023/06/25 11:02:59.312, True, 1.989, 0.132677
2023/06/25 11:02:59.808, True, 2.022, 0.132219
2023/06/25 11:03:00.312, True, 2.321, 0.131609
2023/06/25 11:03:00.816, True, 1.990, 0.130694
2023/06/25 11:03:01.312, True, 2.022, 0.134203
2023/06/25 11:03:01.816, True, 2.321, 0.132219
2023/06/25 11:03:02.312, True, 2.026, 0.131609
2023/06/25 11:03:02.816, True, 1.985, 0.133288
2023/06/25 11:03:03.320, True, 2.321, 0.132448
2023/06/25 11:03:03.824, True, 1.990, 0.133745
2023/06/25 11:03:04.320, True, 2.360, 0.131609
2023/06/25 11:03:04.824, True, 1.988, 0.135119
2023/06/25 11:03:05.328, True, 1.992, 0.131228
2023/06/25 11:03:05.824, True, 2.019, 0.133440
2023/06/25 11:03:06.328, True, 1.993, 0.133288
2023/06/25 11:03:06.832, True, 2.319, 0.133059
2023/06/25 11:03:07.336, True, 1.989, 0.132677
2023/06/25 11:03:07.832, True, 2.359, 0.130541
2023/06/25 11:03:08.336, True, 1.990, 0.132143
2023/06/25 11:03:08.832, True, 2.022, 0.132601
2023/06/25 11:03:09.336, True, 2.321, 0.132982
2023/06/25 11:03:09.840, True, 1.990, 0.131151
2023/06/25 11:03:10.336, True, 2.022, 0.132677
2023/06/25 11:03:10.840, True, 2.321, 0.132830
2023/06/25 11:03:11.344, True, 1.992, 0.131838
2023/06/25 11:03:11.840, True, 2.019, 0.130617
2023/06/25 11:03:12.344, True, 2.321, 0.132982
2023/06/25 11:03:12.848, True, 1.990, 0.132372
2023/06/25 11:03:13.344, True, 2.024, 0.133669
2023/06/25 11:03:13.848, True, 1.987, 0.131838
2023/06/25 11:03:14.352, True, 1.992, 0.131914
2023/06/25 11:03:14.848, True, 2.019, 0.132372
2023/06/25 11:03:15.352, True, 1.989, 0.132906
2023/06/25 11:03:15.856, True, 2.325, 0.131304
2023/06/25 11:03:16.352, True, 2.019, 0.132067
2023/06/25 11:03:16.856, True, 1.990, 0.130541
2023/06/25 11:03:17.359, True, 1.990, 0.132753
2023/06/25 11:03:17.864, True, 1.989, 0.132525
2023/06/25 11:03:18.359, True, 2.359, 0.131991
2023/06/25 11:03:18.864, True, 1.990, 0.133593
2023/06/25 11:03:19.368, True, 1.990, 0.133593
2023/06/25 11:03:19.864, True, 2.022, 0.130846
2023/06/25 11:03:20.367, True, 1.993, 0.133745
2023/06/25 11:03:20.872, True, 2.317, 0.130159
2023/06/25 11:03:21.368, True, 2.022, 0.133364
2023/06/25 11:03:21.872, True, 1.990, 0.133440
2023/06/25 11:03:22.376, True, 2.321, 0.130312
2023/06/25 11:03:22.872, True, 2.022, 0.131456
2023/06/25 11:03:23.376, True, 1.990, 0.129854
2023/06/25 11:03:23.880, True, 2.320, 0.132525
2023/06/25 11:03:24.376, True, 2.022, 0.130083
2023/06/25 11:03:24.880, True, 1.990, 0.131685
2023/06/25 11:03:25.384, True, 1.990, 0.130465
2023/06/25 11:03:25.880, True, 2.021, 0.132296
2023/06/25 11:03:26.384, True, 1.991, 0.130465
2023/06/25 11:03:26.888, True, 2.319, 0.131151
2023/06/25 11:03:27.384, True, 2.023, 0.131762
2023/06/25 11:03:27.888, True, 1.990, 0.131838
2023/06/25 11:03:28.392, True, 2.321, 0.132219
2023/06/25 11:03:28.888, True, 2.022, 0.131380
2023/06/25 11:03:29.392, True, 1.988, 0.131075
2023/06/25 11:03:29.896, True, 1.992, 0.130541
2023/06/25 11:03:30.400, True, 1.989, 0.132677
2023/06/25 11:03:30.896, True, 2.356, 0.130999
2023/06/25 11:03:31.400, True, 1.990, 0.131380
2023/06/25 11:03:31.903, True, 1.992, 0.131304
2023/06/25 11:03:32.400, True, 2.358, 0.132830
2023/06/25 11:03:32.904, True, 1.988, 0.131151
2023/06/25 11:03:33.408, True, 1.989, 0.130694
2023/06/25 11:03:33.904, True, 2.022, 0.131228
2023/06/25 11:03:34.408, True, 1.990, 0.132372
2023/06/25 11:03:34.912, True, 1.990, 0.131151
2023/06/25 11:03:35.408, True, 2.359, 0.132296
2023/06/25 11:03:35.912, True, 1.990, 0.131991
2023/06/25 11:03:36.408, True, 2.022, 0.130999
2023/06/25 11:03:36.912, True, 1.990, 0.130694
2023/06/25 11:03:37.416, True, 2.321, 0.131151
2023/06/25 11:03:37.912, True, 1.685, 0.130083
2023/06/25 11:03:38.416, True, 1.990, 0.130312
2023/06/25 11:03:38.920, True, 2.321, 0.131533
2023/06/25 11:03:39.416, True, 2.022, 0.131685
2023/06/25 11:03:39.920, True, 2.321, 0.133059
2023/06/25 11:03:40.424, True, 1.990, 0.131914
2023/06/25 11:03:40.920, True, 2.022, 0.130999
2023/06/25 11:03:41.424, True, 1.989, 0.130694
2023/06/25 11:03:41.920, True, 2.022, 0.130236
2023/06/25 11:03:42.424, True, 2.321, 0.131914
2023/06/25 11:03:42.928, True, 1.990, 0.130922
2023/06/25 11:03:43.424, True, 2.022, 0.130007
2023/06/25 11:03:43.928, True, 1.990, 0.131762
2023/06/25 11:03:44.432, True, 2.321, 0.130846
2023/06/25 11:03:44.928, True, 2.022, 0.131228
2023/06/25 11:03:45.432, True, 1.990, 0.130694
2023/06/25 11:03:45.928, True, 2.358, 0.127871
2023/06/25 11:03:46.432, True, 1.990, 0.131075
2023/06/25 11:03:46.936, True, 1.990, 0.130236
2023/06/25 11:03:47.432, True, 2.022, 0.130922
2023/06/25 11:03:47.936, True, 1.990, 0.128862
2023/06/25 11:03:48.440, True, 2.325, 0.131991
2023/06/25 11:03:48.936, True, 2.018, 0.131914
2023/06/25 11:03:49.440, True, 1.990, 0.129931
2023/06/25 11:03:49.944, True, 1.990, 0.130312
2023/06/25 11:03:50.440, True, 2.359, 0.129244
2023/06/25 11:03:50.944, True, 1.990, 0.131380
2023/06/25 11:03:51.448, True, 2.321, 0.130617
2023/06/25 11:03:51.944, True, 2.022, 0.130236
2023/06/25 11:03:52.448, True, 1.990, 0.131533
2023/06/25 11:03:52.944, True, 2.023, 0.131304
2023/06/25 11:03:53.448, True, 2.320, 0.131991
2023/06/25 11:03:53.952, True, 1.990, 0.130617
2023/06/25 11:03:54.448, True, 2.359, 0.130617
2023/06/25 11:03:54.952, True, 1.990, 0.128176
2023/06/25 11:03:55.456, True, 1.990, 0.129549
2023/06/25 11:03:55.952, True, 2.022, 0.130694
2023/06/25 11:03:56.456, True, 1.991, 0.129778
2023/06/25 11:03:56.952, True, 2.361, 0.130617
2023/06/25 11:03:57.456, True, 1.986, 0.130770
2023/06/25 11:03:57.960, True, 1.990, 0.131533
2023/06/25 11:03:58.456, True, 2.359, 0.129931
2023/06/25 11:03:58.960, True, 1.990, 0.129473
2023/06/25 11:03:59.464, True, 1.990, 0.129549
2023/06/25 11:03:59.960, True, 2.022, 0.128481
2023/06/25 11:04:00.464, True, 1.990, 0.131533
2023/06/25 11:04:00.968, True, 1.990, 0.130465
2023/06/25 11:04:01.464, True, 2.359, 0.129625
2023/06/25 11:04:01.968, True, 1.991, 0.129244
2023/06/25 11:04:02.472, True, 2.320, 0.130388
2023/06/25 11:04:02.968, True, 2.022, 0.128557
2023/06/25 11:04:03.472, True, 2.321, 0.129091
2023/06/25 11:04:03.976, True, 1.990, 0.131685
2023/06/25 11:04:04.472, True, 2.022, 0.131533
2023/06/25 11:04:04.976, True, 2.321, 0.129854
2023/06/25 11:04:05.480, True, 1.990, 0.130159
2023/06/25 11:04:05.976, True, 2.021, 0.130236
2023/06/25 11:04:06.480, True, 2.321, 0.129702
2023/06/25 11:04:06.984, True, 1.990, 0.130846
2023/06/25 11:04:07.480, True, 2.359, 0.130388
2023/06/25 11:04:07.984, True, 1.991, 0.130007
2023/06/25 11:04:08.488, True, 2.319, 0.130236
2023/06/25 11:04:08.984, True, 2.022, 0.131533
2023/06/25 11:04:09.488, True, 2.321, 0.130465
2023/06/25 11:04:09.992, True, 1.992, 0.130007
2023/06/25 11:04:10.488, True, 2.019, 0.128328
2023/06/25 11:04:10.992, True, 1.989, 0.131991
2023/06/25 11:04:11.496, True, 2.321, 0.129015
2023/06/25 11:04:11.992, True, 2.022, 0.130083
2023/06/25 11:04:12.496, True, 1.990, 0.130465